Cosmos 1825 - Orbit

View from above orbital plane
View from above orbital plane
View from above satellite
View from above satellite

Ground track
Ground track

The orbit data is extracted from the following two-line orbital elements,

1 17566U 87024A   13140.53411733  .00003118  00000-0  19436-3 0  7258
2 17566 082.5088 317.2293 0004228 338.1085 055.5085 15.09224840428488
Epoch (UTC): 20 May 2013 12:49:07
Eccentricity: 0.0004228
inclination: 82.5088°
perigee height: 535 km
apogee height: 541 km
right ascension of ascending node: 317.2293°
argument of perigee: 338.1085°
revolutions per day: 15.09224840
mean anomaly at epoch: 55.5085°
orbit number at epoch: 42848

The dashed part of the orbit path shows where the satellite is in the earth's shadow,  

Developed and maintained by Chris Peat, Heavens-Above GmbH. Please read the updated FAQ before sending e-mail. Imprint. DLR